Location: Unspecified
(41.3753°N, 0.0000°E)
Time: 09:50:20
(UTC+00:00)

Sep Motor Cover - Visible Passes

Search period start: 04 April 2026 00:00
Search period end: 14 April 2026 00:00
Orbit: 837 x 1144 km, 71.0° (Epoch: 29 March)

Date Brightness Start Highest point End Pass type
(mag) Time Alt. Az. Time Alt. Az. Time Alt. Az.
5 Apr ? 19:13:47 10° WNW 19:16:59 14° W 19:20:08 10° WSW visible
9 Apr ? 04:58:00 10° E 04:58:55 10° E 04:59:49 10° E visible
12 Apr ? 04:37:48 10° SE 04:41:32 16° E 04:45:22 10° ENE visible
